Mount Shasta, CA

1:50 AM PDT on April 27, 2017 (GMT -0700)
Mount Shasta

Weather History for KMHS - November, 2012

Change the Weather History Date:

Friday, November 9, 2012

  Actual Average Record
Temperature  
Mean Temperature 33 °F 42 °F  
Max Temperature 42 °F 54 °F 73 °F (1956)
Min Temperature 24 °F 31 °F 18 °F (1920)
Degree Days  
Heating Degree Days 32 23  
Month to date heating degree days 160 191  
Since 1 July heating degree days 554 855  
Cooling Degree Days 0 0  
Month to date cooling degree days 0 0  
Year to date cooling degree days 392 288  
Moisture  
Dew Point 25 °F    
Average Humidity 77    
Maximum Humidity 85    
Minimum Humidity 54    
Precipitation  
Precipitation T in 0.16 in 3.00 in (1928)
Month to date precipitation 0.04 1.37  
Year to date precipitation 25.71 31.65  
Sea Level Pressure  
Sea Level Pressure 29.89 in    
Wind  
Wind Speed 0 mph (NE)    
Max Wind Speed 7 mph    
Max Gust Speed 10 mph    
Visibility 8 miles    
Events Snow    
T = Trace of Precipitation, MM = Missing Value Source: NWS Daily Summary

Daily Weather History Graph

Daily Weather History Graph

Search for Another Location

Airport or City:

Trip Planner

Search our weather history database for the weather conditions in past years. The results will help you decide how hot, cold, wet, or windy it might be!

Date:

Astronomy

Nov. 09, 2012 Rise Set
Actual Time 6:51 AM PST 4:54 PM PST
Civil Twilight 6:21 AM PST 5:24 PM PST
Nautical Twilight 5:48 AM PST 5:57 PM PST
Astronomical Twilight 5:16 AM PST 6:29 PM PST
Moon 1:52 AM PST (11/9) 2:13 PM PST (11/9)
Length of Visible Light 11h 02m
Length of Day
10h 03m
Waning Crescent, 22% of the Moon is Illuminated
Nov 9
Waning Crescent
Nov 13
New
Nov 20
First Quarter
Nov 28
Full
Dec 6
Last Quarter

Hourly Weather History & Observations

Time (PST) Temp. Windchill Dew Point Humidity Pressure Visibility Wind Dir Wind Speed Gust Speed Precip Events Conditions
12:11 AM 30.2 °F - 26.6 °F 86% 29.77 in 10.0 mi Calm Calm - N/A   Overcast
12:56 AM 30.9 °F - 27.0 °F 85% 29.86 in 10.0 mi Calm Calm - N/A   Overcast
1:56 AM 30.0 °F - 26.1 °F 85% 29.88 in 10.0 mi Calm Calm - N/A   Overcast
2:56 AM 28.9 °F - 25.0 °F 85% 29.88 in 10.0 mi Calm Calm - N/A   Mostly Cloudy
3:56 AM 28.0 °F - 24.1 °F 85% 29.90 in 10.0 mi Calm Calm - N/A   Partly Cloudy
4:56 AM 27.0 °F - 23.0 °F 85% 29.92 in 10.0 mi Calm Calm - N/A   Clear
5:56 AM 27.0 °F - 21.9 °F 81% 29.93 in 10.0 mi Calm Calm - N/A   Clear
6:56 AM 24.1 °F 19.7 °F 19.9 °F 84% 29.95 in 10.0 mi NE 3.5 mph - N/A   Clear
7:56 AM 25.0 °F - 19.9 °F 81% 29.96 in 10.0 mi Calm Calm - N/A   Clear
8:56 AM 30.0 °F - 23.0 °F 75% 29.95 in 10.0 mi Calm Calm - N/A   Clear
9:56 AM 34.0 °F - 25.0 °F 70% 29.95 in 10.0 mi Calm Calm - N/A   Clear
10:56 AM 37.9 °F - 23.0 °F 55% 29.94 in 10.0 mi Calm Calm - N/A   Mostly Cloudy
11:12 AM 35.6 °F - 23.0 °F 60% 29.84 in 10.0 mi Calm Calm - N/A   Mostly Cloudy
11:21 AM 37.4 °F - 23.0 °F 56% 29.84 in 10.0 mi Calm Calm - N/A   Overcast
11:44 AM 37.4 °F - 24.8 °F 60% 29.83 in 10.0 mi Calm Calm - N/A   Scattered Clouds
11:56 AM 37.9 °F - 23.0 °F 55% 29.92 in 10.0 mi Calm Calm - N/A   Clear
12:56 PM 39.9 °F - 24.1 °F 53% 29.89 in 10.0 mi Calm Calm - N/A   Mostly Cloudy
1:56 PM 39.0 °F - 26.1 °F 60% 29.89 in 10.0 mi Calm Calm - N/A   Overcast
2:56 PM 39.0 °F 36.8 °F 26.1 °F 60% 29.90 in 10.0 mi Variable 3.5 mph - N/A   Overcast
3:56 PM 37.0 °F - 26.1 °F 65% 29.91 in 9.0 mi Calm Calm - N/A   Overcast
4:05 PM 35.6 °F - 28.4 °F 75% 29.81 in 4.0 mi Calm Calm - 0.00 in Snow Light Snow
4:16 PM 35.6 °F 31.7 °F 28.4 °F 75% 29.81 in 9.0 mi Variable 4.6 mph - 0.00 in   Overcast
4:56 PM 34.0 °F - 28.0 °F 79% 29.92 in 10.0 mi Calm Calm - 0.00 in   Overcast
5:56 PM 30.9 °F - 27.0 °F 85% 29.94 in 10.0 mi Calm Calm - N/A   Mostly Cloudy
6:56 PM 28.0 °F - 24.1 °F 85% 29.97 in 7.0 mi Calm Calm - N/A   Partly Cloudy
7:08 PM 28.4 °F - 24.8 °F 86% 29.84 in 7.0 mi Calm Calm - N/A   Partly Cloudy
7:29 PM 28.4 °F - 24.8 °F 86% 29.84 in 8.0 mi Calm Calm - N/A   Mostly Cloudy
7:48 PM 28.4 °F - 24.8 °F 86% 29.84 in 9.0 mi Calm Calm - N/A   Overcast
7:56 PM 28.0 °F - 24.1 °F 85% 29.97 in 7.0 mi Calm Calm - N/A   Overcast
8:17 PM 28.4 °F - 24.8 °F 86% 29.84 in 6.0 mi Calm Calm - N/A   Haze
8:56 PM 30.0 °F - 25.0 °F 82% 29.96 in 7.0 mi Calm Calm - N/A   Overcast
9:30 PM 30.2 °F - 26.6 °F 86% 29.85 in 2.5 mi Calm Calm - 0.00 in Snow Light Snow
9:39 PM 30.2 °F - 26.6 °F 86% 29.85 in 5.0 mi Calm Calm - 0.00 in Snow Light Snow
9:52 PM 30.2 °F - 26.6 °F 86% 29.85 in 6.0 mi Calm Calm - 0.00 in   Overcast
9:56 PM 30.0 °F - 26.1 °F 85% 29.95 in 6.0 mi Calm Calm - 0.00 in   Overcast
10:03 PM 30.2 °F - 26.6 °F 86% 29.85 in 6.0 mi Calm Calm - N/A   Overcast
10:56 PM 30.9 °F - 27.0 °F 85% 29.94 in 5.0 mi Calm Calm - N/A   Overcast
11:40 PM 30.2 °F - 26.6 °F 86% 29.85 in 6.0 mi Calm Calm - N/A   Overcast
11:56 PM 30.0 °F - 26.1 °F 85% 29.95 in 6.0 mi Calm Calm - N/A   Overcast